ARIANE 42P DEB, 44509

Orbit data source: Space-Track

ARIANE 42P DEB, 44509 is space debris in LEO originally from a launch on Mon, 10 Aug 1992 UTC launched from the French Guiana (FRGUI). Debris objects in space refer to the collection of defunct objects orbiting the Earth. Examples of debris include non-operational satellites, rocket bodies, and fragments generated from explosions, collisions, or faulty payload assembly.

Loading next visibility...
Identifier
44509, 1992-052G
Orbit
LEO
Country
Flag of FRFR
Related business
Manufacturer
ArianeGroup
Mission
Spacecraft
Bus & Motor
Unknown
Mass
Unknown
Launch date (UTC)
1992-08-10 (34 years ago)
Launch vehicle
Unknown
Launch site
French Guiana (FRGUI)
Object type
Payload
Rocket body
Debris
Shape & HBR
Unknown shape, 0.1 m
Radar Cross Section
Small (<0.1 m²)

Expand to show TLE details & history
Last TLE update: 1 day ago

TLE from 1 day ago
0 ARIANE 42P DEB
1 44509U 92052G   26093.33481118  .00003083  00000-0  12508-1 0  9990
2 44509  66.0858  82.4206 0099851 310.9625  48.2784 12.85631702310335
Epoch: 2026-04-03T08:02Z
TLE epoch observation values (Epoch: 2026-04-03T08:02:07.685Z)
Latitude
-0.00006°
Longitude
130.21813°
Altitude
1,270.107 km
Speed
7.245 km/s
True Right ascension
05h 29m 40s
True Declination
0° 00' 00"
Sunlit
Object was in daylight at epoch
Visualization orbit readout
Latitude
Unknown
Longitude
Unknown
Altitude
Unknown
Speed
Unknown
Apparent Right ascension
Unknown
Apparent Declination
Unknown
Sunlit
N/A
Visualization observer readout
Local Sidereal Time
19:12:01
Azimuth
Unknown
Elevation
Unknown
Doppler factor
Unknown
Orbital elements
Apogee altitude
1,394.305 km
Perigee altitude
1,240.623 km
Semi-major axis
7,695.601 km
Eccentricity
0.00999
Inclination
66.0858°
RAAN
82.4206°
Arg. of periapsis
310.9625°
True anomaly
49.13954°
Mean anomaly
48.2784°
Eccentric anomaly
48.70826°
Mean motion
3.21499 °/min
Orbital period
111.98 mins
BSTAR
0.012508
Loading maneuver chart data...
Computing Atmospheric mass density...
Loading historical data...
Loading historical data...
Loading historical data...
Loading historical data...
Loading historical data...
Loading historical data...
Loading historical data...

Documentation

Showing up to 5 results
|